Satellite: NOAA-12 Catalog number: 21263 Epoch time: 06243.20964070 Element set: 756 Inclination: 098.7358 deg RA of node: 236.1950 deg Eccentricity: 0.0011952 Arg of perigee: 228.4373 deg Mean anomaly: 131.5771 deg Mean motion: 14.25506659 rev/day Decay rate: 1.28e-06 rev/day^2 Epoch rev: 79493 Checksum: 312
Satellite: MET-3/5 Catalog number: 21655 Epoch time: 06242.96823435 Element set: 0168 Inclination: 082.5538 deg RA of node: 207.9514 deg Eccentricity: 0.0012207 Arg of perigee: 209.5539 deg Mean anomaly: 150.4894 deg Mean motion: 13.17007185 rev/day Decay rate: 5.1e-07 rev/day^2 Epoch rev: 72320 Checksum: 295
Satellite: MET-2/21 Catalog number: 22782 Epoch time: 06242.66185302 Element set: 0602 Inclination: 082.5444 deg RA of node: 272.3713 deg Eccentricity: 0.0021623 Arg of perigee: 335.1772 deg Mean anomaly: 024.8342 deg Mean motion: 13.83609593 rev/day Decay rate: -1.8e-07 rev/day^2 Epoch rev: 65634 Checksum: 288
Satellite: OKEAN-4 Catalog number: 23317 Epoch time: 06242.73922903 Element set: 0038 Inclination: 082.5396 deg RA of node: 207.4601 deg Eccentricity: 0.0023598 Arg of perigee: 126.4371 deg Mean anomaly: 233.9046 deg Mean motion: 14.82390414 rev/day Decay rate: 2.06e-06 rev/day^2 Epoch rev: 64102 Checksum: 278
Satellite: NOAA-14 Catalog number: 23455 Epoch time: 06243.18135152 Element set: 256 Inclination: 099.0311 deg RA of node: 302.2320 deg Eccentricity: 0.0009186 Arg of perigee: 194.7594 deg Mean anomaly: 165.3329 deg Mean motion: 14.13678559 rev/day Decay rate: -1.67e-06 rev/day^2 Epoch rev: 60166 Checksum: 298
Satellite: SICH-1 Catalog number: 23657 Epoch time: 06243.72959949 Element set: 841 Inclination: 082.5319 deg RA of node: 347.4459 deg Eccentricity: 0.0025543 Arg of perigee: 113.1954 deg Mean anomaly: 247.1985 deg Mean motion: 14.81384902 rev/day Decay rate: 2.01e-06 rev/day^2 Epoch rev: 59317 Checksum: 327
Satellite: NOAA-15 Catalog number: 25338 Epoch time: 06243.17566345 Element set: 644 Inclination: 098.5200 deg RA of node: 243.2450 deg Eccentricity: 0.0010984 Arg of perigee: 150.7146 deg Mean anomaly: 209.4665 deg Mean motion: 14.24600727 rev/day Decay rate: 1.73e-06 rev/day^2 Epoch rev: 43139 Checksum: 289
Satellite: RESURS Catalog number: 25394 Epoch time: 06242.75938200 Element set: 0453 Inclination: 098.4884 deg RA of node: 303.1123 deg Eccentricity: 0.0001292 Arg of perigee: 355.6425 deg Mean anomaly: 004.4743 deg Mean motion: 14.24110355 rev/day Decay rate: 5.0e-08 rev/day^2 Epoch rev: 42301 Checksum: 255
Satellite: FENGYUN1 Catalog number: 25730 Epoch time: 06242.60680948 Element set: 0813 Inclination: 098.6310 deg RA of node: 232.3553 deg Eccentricity: 0.0013754 Arg of perigee: 290.8434 deg Mean anomaly: 069.1263 deg Mean motion: 14.11814782 rev/day Decay rate: 1.15e-06 rev/day^2 Epoch rev: 37651 Checksum: 287
Satellite: OKEAN-0 Catalog number: 25860 Epoch time: 06243.72971409 Element set: 839 Inclination: 097.7332 deg RA of node: 254.5425 deg Eccentricity: 0.0000655 Arg of perigee: 106.6845 deg Mean anomaly: 253.4430 deg Mean motion: 14.73384803 rev/day Decay rate: 3.4e-07 rev/day^2 Epoch rev: 38287 Checksum: 307
Satellite: NOAA-16 Catalog number: 26536 Epoch time: 06243.16804884 Element set: 24 Inclination: 099.0735 deg RA of node: 210.6935 deg Eccentricity: 0.0009735 Arg of perigee: 271.1094 deg Mean anomaly: 088.8941 deg Mean motion: 14.12366615 rev/day Decay rate: 2.66e-06 rev/day^2 Epoch rev: 30616 Checksum: 309
Satellite: NOAA-17 Catalog number: 27453 Epoch time: 06243.22447804 Element set: 43 Inclination: 098.6152 deg RA of node: 313.9621 deg Eccentricity: 0.0011404 Arg of perigee: 213.3315 deg Mean anomaly: 146.7158 deg Mean motion: 14.23806086 rev/day Decay rate: 2.30e-06 rev/day^2 Epoch rev: 21745 Checksum: 270
Satellite: NOAA-18 Catalog number: 28654 Epoch time: 06242.87798583 Element set: 0617 Inclination: 098.7902 deg RA of node: 184.5686 deg Eccentricity: 0.0014862 Arg of perigee: 013.1706 deg Mean anomaly: 346.9826 deg Mean motion: 14.10987031 rev/day Decay rate: 6.5e-07 rev/day^2 Epoch rev: 06591 Checksum: 344
/EX SB KEPS @ AMSAT $ORB06243.M Orbital Elements 06243.MISC
HR AMSAT ORBITAL ELEMENTS FOR MANNED AND MISCELLANEOUS SATELLITES FROM WA5QGD FORT WORTH,TX August 31, 2006 Send SUBSCRIBE KEPS/UNSUBSCRIBE KEPS to [email protected] only BID: ORB06243.M TO ALL RADIO AMATEURS BT
Satellite: HUBBLE Catalog number: 20580 Epoch time: 06242.54605249 Element set: 687 Inclination: 028.4700 deg RA of node: 285.1386 deg Eccentricity: 0.0003658 Arg of perigee: 249.2177 deg Mean anomaly: 110.8024 deg Mean motion: 15.00083480 rev/day Decay rate: 3.89e-06 rev/day^2 Epoch rev: 69627 Checksum: 297
Satellite: UARS Catalog number: 21701 Epoch time: 06242.96310641 Element set: 0872 Inclination: 056.9755 deg RA of node: 129.9855 deg Eccentricity: 0.0100784 Arg of perigee: 356.6487 deg Mean anomaly: 003.3878 deg Mean motion: 15.44409916 rev/day Decay rate: 6.414e-05 rev/day^2 Epoch rev: 82085 Checksum: 325
Satellite: PO-34 Catalog number: 25520 Epoch time: 06242.50367611 Element set: 0563 Inclination: 028.4619 deg RA of node: 253.9497 deg Eccentricity: 0.0005102 Arg of perigee: 327.8567 deg Mean anomaly: 032.1719 deg Mean motion: 15.16774933 rev/day Decay rate: 5.28e-06 rev/day^2 Epoch rev: 43334 Checksum: 304
Satellite: ISS Catalog number: 25544 Epoch time: 06243.81789068 Element set: 590 Inclination: 051.6315 deg RA of node: 157.8145 deg Eccentricity: 0.0011076 Arg of perigee: 286.6600 deg Mean anomaly: 144.6243 deg Mean motion: 15.75485411 rev/day Decay rate: 1.2796e-04 rev/day^2 Epoch rev: 44509 Checksum: 310
Satellite: OO-38 Catalog number: 26063 Epoch time: 06242.50963779 Element set: 0707 Inclination: 100.1892 deg RA of node: 186.9360 deg Eccentricity: 0.0036548 Arg of perigee: 258.1633 deg Mean anomaly: 101.5447 deg Mean motion: 14.35775050 rev/day Decay rate: -1.9e-07 rev/day^2 Epoch rev: 34534 Checksum: 310
Satellite: NO-45 Catalog number: 26932 Epoch time: 06242.94642732 Element set: 0412 Inclination: 067.0553 deg RA of node: 174.8307 deg Eccentricity: 0.0007397 Arg of perigee: 241.3811 deg Mean anomaly: 118.6544 deg Mean motion: 14.29532977 rev/day Decay rate: -6.1e-07 rev/day^2 Epoch rev: 25665 Checksum: 312
Satellite: UWE-1 Catalog number: 28892 Epoch time: 06242.72482262 Element set: 0540 Inclination: 098.1529 deg RA of node: 139.7036 deg Eccentricity: 0.0016862 Arg of perigee: 302.1660 deg Mean anomaly: 057.7901 deg Mean motion: 14.59388665 rev/day Decay rate: 1.77e-06 rev/day^2 Epoch rev: 04484 Checksum: 319
Satellite: CO-58 Catalog number: 28895 Epoch time: 06242.71333312 Element set: 0524 Inclination: 098.1556 deg RA of node: 139.7989 deg Eccentricity: 0.0017208 Arg of perigee: 301.9347 deg Mean anomaly: 058.0188 deg Mean motion: 14.59439194 rev/day Decay rate: 1.52e-06 rev/day^2 Epoch rev: 04472 Checksum: 332
Satellite: NCUBE2 Catalog number: 28897 Epoch time: 06242.68268432 Element set: 0113 Inclination: 098.1536 deg RA of node: 139.7488 deg Eccentricity: 0.0016797 Arg of perigee: 303.9213 deg Mean anomaly: 056.0379 deg Mean motion: 14.59595308 rev/day Decay rate: 1.35e-06 rev/day^2 Epoch rev: 03699 Checksum: 341
/EX